sat.trackr.live / text

‹ back to catalog

STARLINK-35097

NORAD 65393 · 2025-191Q

PAYLOAD ACTIVE UNKNOWN

§ Identity

Operator
Country
US
Launch date
2025-08-30
Launch site
AFWTR
Launch vehicle
Mass (kg)
RCS (m²)

Purposes: comms

External: N2YO · Heavens-Above · Gunter

§ Orbital elements

Epoch: 2026-05-25T03:31:59.783808Z

Period
95.64 min
Inclination
97.4506°
Eccentricity
0.0001720
Mean motion
15.05659999 rev/d
Perigee alt
548.3 km
Apogee alt
550.7 km
Semi-major
6,927.6 km
B*
2.3843e-4
RAAN
16.5019°
Arg perigee
74.3981°
Mean anomaly
285.7436°
Rev number
4,032

§ Raw data

STARLINK-350971 65393U 25191Q   26145.14721972  .00003384  00000+0  23843-3 0  99952 65393  97.4506  16.5019 0001720  74.3981 285.7436 15.05659999 40325

JSON: /api/v1/satellites/65393 · /tle

For live sub-satellite position, see the globe view (requires WebGL).

§ Visibility from observer

Set your observer location to see the next 7 days of passes ≥ 10°. The values pass through the URL so the page stays shareable.

No JS? Fill the form by hand. The geolocation button needs JavaScript.